Torna al catalogo

FENGYUN 1C DEB

AttivoSSO
NORAD 33720·DEBRIS·🇨🇳 China

Lanciato May 10, 1999 da Taiyuan Satellite Launch Center

Loading…

Prossimi Passaggi (prossime 24 ore)

TLE

In scadenzaSource: Space-Track

Epoca: Sep 11, 2026, 05:22 UTC

1 33720U 99025DHH 26254.22412263  .00001117  00000-0  33930-3 0  9992
2 33720  98.2502 252.8299 0078861 324.2438  35.3486 14.42280373972827

Traccia FENGYUN 1C DEB in tempo reale con AllMySat

Download on the App Store